sat.trackr.live / text

‹ back to catalog

CONNECTA IOT-8

NORAD 62695 · 2025-009CQ

PAYLOAD ACTIVE UNKNOWN

§ Identity

Operator
Country
TURK
Launch date
2025-01-14
Launch site
AFWTR
Launch vehicle
Mass (kg)
RCS (m²)

External: N2YO · Heavens-Above · Gunter

§ Orbital elements

Epoch: 2026-05-25T04:28:29.311968Z

Period
96.44 min
Inclination
97.7078°
Eccentricity
0.0004266
Mean motion
14.93150194 rev/d
Perigee alt
585.1 km
Apogee alt
591.1 km
Semi-major
6,966.3 km
B*
7.2896e-5
RAAN
223.4977°
Arg perigee
83.9553°
Mean anomaly
276.2153°
Rev number
7,386

§ Raw data

CONNECTA IOT-81 62695U 25009CQ  26145.18645037  .00000705  00000+0  72896-4 0  99932 62695  97.7078 223.4977 0004266  83.9553 276.2153 14.93150194 73860

JSON: /api/v1/satellites/62695 · /tle

For live sub-satellite position, see the globe view (requires WebGL).

§ Visibility from observer

Set your observer location to see the next 7 days of passes ≥ 10°. The values pass through the URL so the page stays shareable.

No JS? Fill the form by hand. The geolocation button needs JavaScript.

§ Radio — SatNOGS DB

ModeDescriptionDownlinkUplink
GMSK Mode S - GMSK 4k8 AX.25 TLM 2.240 GHz
GMSK Mode U - GMSK 4k8 AX.25 TLM 401.540 MHz

2 transmitters · refreshed weekly from db.satnogs.org